Bluffton, MN

12:29 AM CST on January 20, 2017 (GMT -0600)
Wadena Municipal

Weather History for KADC - January, 2014

Change the Weather History Date:

Wednesday, January 22, 2014

  Actual Average Record
Temperature  
Mean Temperature -10 °F -  
Max Temperature 1 °F 23 °F 51 °F (1942)
Min Temperature -22 °F 1 °F -42 °F (1936)
Degree Days  
Heating Degree Days 74    
Moisture  
Dew Point -15 °F    
Average Humidity 73    
Maximum Humidity 85    
Minimum Humidity 65    
Precipitation  
Precipitation 0.00 in - - ()
Sea Level Pressure  
Sea Level Pressure 30.20 in    
Wind  
Wind Speed 14 mph (NW)    
Max Wind Speed 22 mph    
Max Gust Speed 26 mph    
Visibility 8 miles    
Events Snow    
Averages and records for this station are not official NWS values.
T = Trace of Precipitation, MM = Missing Value Source: NWS Daily Summary

Daily Weather History Graph

Daily Weather History Graph

Search for Another Location

Airport or City:

Trip Planner

Search our weather history database for the weather conditions in past years. The results will help you decide how hot, cold, wet, or windy it might be!

Date:

Astronomy

Jan. 22, 2014 Rise Set
Actual Time 7:54 AM CST 5:10 PM CST
Civil Twilight 7:21 AM CST 5:43 PM CST
Nautical Twilight 6:44 AM CST 6:20 PM CST
Astronomical Twilight 6:09 AM CST 6:56 PM CST
Moon No Moon Rise 10:32 AM CST (1/22)
Length of Visible Light 10h 21m
Length of Day
9h 15m
Waning Gibbous, 65% of the Moon is Illuminated
Jan 22
Waning Gibbous
Jan 23
Last Quarter
Jan 30
New
Feb 6
First Quarter
Feb 14
Full

Hourly Weather History & Observations

Time (CST) Temp. Windchill Dew Point Humidity Pressure Visibility Wind Dir Wind Speed Gust Speed Precip Events Conditions
12:14 AM 1.4 °F -16.1 °F -2.2 °F 85% 29.94 in 7.0 mi WNW 12.7 mph - N/A   Overcast
12:34 AM 1.4 °F -16.9 °F -2.2 °F 85% 29.94 in 10.0 mi NW 13.8 mph - N/A   Overcast
12:53 AM 1.4 °F -16.1 °F -2.2 °F 85% 29.94 in 10.0 mi NW 12.7 mph - N/A   Overcast
1:15 AM 1.4 °F -18.2 °F -2.2 °F 85% 29.94 in 10.0 mi NW 16.1 mph 20.7 mph N/A   Overcast
1:35 AM 1.4 °F -15.3 °F -4.0 °F 78% 29.94 in 10.0 mi NW 11.5 mph - N/A   Overcast
1:53 AM -0.4 °F -15.7 °F -5.8 °F 78% 29.94 in 10.0 mi WNW 9.2 mph 16.1 mph N/A   Mostly Cloudy
2:14 AM -0.4 °F -16.7 °F -4.0 °F 85% 29.93 in 10.0 mi West 10.4 mph - N/A   Overcast
2:35 AM -0.4 °F -16.7 °F -4.0 °F 85% 29.93 in 10.0 mi WNW 10.4 mph - N/A   Overcast
2:53 AM -0.4 °F -15.7 °F -4.0 °F 85% 29.93 in 10.0 mi WNW 9.2 mph - N/A   Overcast
3:15 AM -0.4 °F -15.7 °F -4.0 °F 85% - 7.0 mi WNW 9.2 mph - N/A Snow Light Snow
3:35 AM -0.4 °F -16.7 °F -4.0 °F 85% 29.93 in 5.0 mi WNW 10.4 mph - N/A Snow Light Snow
3:53 AM 1.4 °F -16.9 °F -4.0 °F 78% 29.93 in 5.0 mi WNW 13.8 mph - N/A Snow Light Snow
4:14 AM -0.4 °F -19.9 °F -4.0 °F 85% 29.93 in 4.0 mi WNW 15.0 mph 19.6 mph N/A Snow Light Snow
4:34 AM -0.4 °F -20.5 °F -4.0 °F 85% 29.94 in 5.0 mi NW 16.1 mph - N/A Snow Light Snow
4:53 AM -0.4 °F -21.7 °F -5.8 °F 78% - 4.0 mi NW 18.4 mph 24.2 mph N/A Snow Light Snow
5:15 AM -0.4 °F -21.2 °F -5.8 °F 78% 29.96 in 5.0 mi NW 17.3 mph 23.0 mph N/A Snow Light Snow
5:35 AM -0.4 °F -19.9 °F -7.6 °F 72% 29.97 in 7.0 mi NW 15.0 mph 23.0 mph N/A   Overcast
5:53 AM -0.4 °F -19.2 °F -7.6 °F 72% 29.98 in 10.0 mi NW 13.8 mph 19.6 mph N/A   Overcast
6:15 AM -0.4 °F -19.9 °F -7.6 °F 72% 29.98 in 7.0 mi NW 15.0 mph 23.0 mph N/A   Overcast
6:35 AM -0.4 °F -19.9 °F -7.6 °F 72% 30.00 in 7.0 mi NW 15.0 mph 19.6 mph N/A   Overcast
6:52 AM -2.2 °F -23.5 °F -7.6 °F 78% 30.00 in 7.0 mi NW 17.3 mph - N/A   Overcast
7:14 AM -2.2 °F -23.5 °F -7.6 °F 78% 30.02 in 7.0 mi NW 17.3 mph 23.0 mph N/A   Overcast
7:35 AM -2.2 °F -23.5 °F -9.4 °F 71% 30.03 in 7.0 mi NW 17.3 mph 23.0 mph N/A   Mostly Cloudy
7:53 AM -4.0 °F -27.0 °F -11.2 °F 71% 30.04 in 5.0 mi NNW 19.6 mph 26.5 mph N/A   Haze
8:15 AM -5.8 °F -28.2 °F -13.0 °F 71% 30.06 in 4.0 mi NNW 17.3 mph 26.5 mph N/A   Haze
8:35 AM -5.8 °F -28.8 °F -14.8 °F 65% 30.07 in 4.0 mi NNW 18.4 mph 26.5 mph N/A   Haze
8:52 AM -7.6 °F -29.8 °F -14.8 °F 71% 30.08 in 10.0 mi NNW 16.1 mph 20.7 mph N/A   Clear
9:15 AM -7.6 °F -29.8 °F -14.8 °F 71% 30.10 in 5.0 mi NNW 16.1 mph - N/A   Haze
9:35 AM -7.6 °F -30.5 °F -14.8 °F 71% 30.11 in 7.0 mi NNW 17.3 mph 21.9 mph N/A   Scattered Clouds
9:53 AM -7.6 °F -32.9 °F -14.8 °F 71% 30.13 in 5.0 mi NNW 21.9 mph - N/A   Haze
10:14 AM -7.6 °F -31.7 °F -14.8 °F 71% 30.15 in 4.0 mi NNW 19.6 mph 26.5 mph N/A   Haze
10:35 AM -7.6 °F -31.1 °F -14.8 °F 71% 30.16 in 7.0 mi NNW 18.4 mph 25.3 mph N/A   Clear
10:53 AM -7.6 °F -30.5 °F -16.6 °F 65% 30.17 in 5.0 mi NNW 17.3 mph 24.2 mph N/A   Haze
11:14 AM -7.6 °F -30.5 °F -16.6 °F 65% 30.18 in 5.0 mi NNW 17.3 mph - N/A   Haze
11:34 AM -7.6 °F -31.1 °F -16.6 °F 65% 30.18 in 7.0 mi NNW 18.4 mph - N/A   Clear
11:53 AM -7.6 °F -31.1 °F -16.6 °F 65% 30.18 in 5.0 mi NNW 18.4 mph 24.2 mph N/A   Haze
12:15 PM -7.6 °F -31.1 °F -16.6 °F 65% 30.19 in 1.5 mi NNW 18.4 mph 23.0 mph N/A   Haze
12:35 PM -7.6 °F -29.1 °F -16.6 °F 65% 30.20 in 7.0 mi NW 15.0 mph 23.0 mph N/A   Clear
12:53 PM -7.6 °F -29.1 °F -16.6 °F 65% 30.20 in 7.0 mi NW 15.0 mph 25.3 mph N/A   Clear
1:15 PM -7.6 °F -31.1 °F -16.6 °F 65% 30.20 in 4.0 mi NW 18.4 mph 25.3 mph N/A   Haze
1:35 PM -7.6 °F -30.5 °F -16.6 °F 65% 30.21 in 7.0 mi NW 17.3 mph 23.0 mph N/A   Clear
1:53 PM -7.6 °F -29.8 °F -16.6 °F 65% 30.22 in 7.0 mi NW 16.1 mph - N/A   Clear
2:15 PM -7.6 °F -32.3 °F -16.6 °F 65% 30.23 in 5.0 mi NW 20.7 mph - N/A Snow Light Snow
2:34 PM -7.6 °F -28.3 °F -16.6 °F 65% 30.25 in 10.0 mi NW 13.8 mph - N/A   Clear
2:53 PM -7.6 °F -27.5 °F -16.6 °F 65% 30.26 in 10.0 mi NW 12.7 mph 21.9 mph N/A   Clear
3:15 PM -7.6 °F -29.1 °F -16.6 °F 65% 30.28 in 10.0 mi NW 15.0 mph - N/A   Clear
3:35 PM -7.6 °F -29.1 °F -16.6 °F 65% 30.29 in 10.0 mi NW 15.0 mph 18.4 mph N/A   Clear
3:53 PM -9.4 °F -32.1 °F -18.4 °F 65% 30.30 in 10.0 mi NW 16.1 mph - N/A   Clear
4:15 PM -9.4 °F -34.1 °F -18.4 °F 65% 30.31 in 7.0 mi NW 19.6 mph 23.0 mph N/A   Clear
4:35 PM -9.4 °F -32.8 °F -18.4 °F 65% 30.33 in 5.0 mi NW 17.3 mph 24.2 mph N/A   Haze
4:53 PM -11.2 °F -33.7 °F -18.4 °F 70% 30.34 in 10.0 mi NW 15.0 mph - N/A   Clear
5:15 PM -13.0 °F -35.2 °F -20.2 °F 70% 30.36 in 10.0 mi NW 13.8 mph 18.4 mph N/A   Clear
5:35 PM -14.8 °F -37.5 °F -20.2 °F 77% 30.37 in 10.0 mi NW 13.8 mph - N/A   Clear
5:52 PM -14.8 °F -37.5 °F -20.2 °F 77% 30.38 in 10.0 mi NW 13.8 mph - N/A   Clear
6:15 PM -14.8 °F -37.5 °F -20.2 °F 77% 30.40 in 10.0 mi NW 13.8 mph 19.6 mph N/A   Clear
6:35 PM -14.8 °F -36.6 °F -20.2 °F 77% 30.40 in 10.0 mi NW 12.7 mph - N/A   Clear
6:52 PM -14.8 °F -38.3 °F -22.0 °F 70% 30.41 in 10.0 mi NW 15.0 mph - N/A   Clear
7:15 PM -16.6 °F -39.8 °F -22.0 °F 76% 30.42 in 10.0 mi NW 13.8 mph - N/A   Clear
7:35 PM -16.6 °F -39.8 °F -23.8 °F 70% 30.43 in 10.0 mi NW 13.8 mph - N/A   Clear
7:53 PM -16.6 °F -40.6 °F -23.8 °F 70% 30.43 in 10.0 mi NW 15.0 mph 20.7 mph N/A   Clear
8:15 PM -18.4 °F -41.2 °F -23.8 °F 76% 30.44 in 10.0 mi NW 12.7 mph - N/A   Clear
8:35 PM -18.4 °F -41.2 °F -23.8 °F 76% 30.46 in 10.0 mi NW 12.7 mph - N/A   Clear
8:53 PM -18.4 °F -40.2 °F -23.8 °F 76% 30.46 in 10.0 mi NW 11.5 mph - N/A   Clear
9:15 PM -18.4 °F -40.2 °F -23.8 °F 76% 30.47 in 10.0 mi NW 11.5 mph - N/A   Clear
9:35 PM -20.2 °F -43.4 °F -25.6 °F 76% 30.47 in 10.0 mi NW 12.7 mph - N/A   Clear
9:53 PM -20.2 °F -42.4 °F -25.6 °F 76% 30.47 in 10.0 mi NW 11.5 mph - N/A   Clear
10:15 PM -20.2 °F -41.3 °F -25.6 °F 76% 30.48 in 10.0 mi NW 10.4 mph - N/A   Clear
10:35 PM -20.2 °F -38.8 °F -25.6 °F 76% 30.49 in 10.0 mi NW 8.1 mph - N/A   Clear
10:53 PM -20.2 °F -38.8 °F -25.6 °F 76% 30.49 in 10.0 mi NW 8.1 mph - N/A   Clear
11:15 PM -20.2 °F -38.8 °F -25.6 °F 76% 30.50 in 10.0 mi NW 8.1 mph - N/A   Clear
11:35 PM -20.2 °F -40.1 °F -25.6 °F 76% 30.51 in 10.0 mi WNW 9.2 mph - N/A   Clear
11:53 PM -22.0 °F -42.3 °F -27.4 °F 76% 30.52 in 10.0 mi WNW 9.2 mph - N/A   Clear